Flag for U.S.A. Weather past 2 weeks in Oakland, California, U.S.A.

Now
53 °F

Low clouds.


Feels Like: 51 °F
Forecast: 54 / 66 °F
Wind: 8 mph from West

Location: Metro Oakland International Airport

Current Time: May 29, 2015 at 3:16:45 AM

Latest Report: May 29, 2015 at 1:53 AM


Visibility: 10 mi

Pressure: 30.01 "Hg

Humidity: 89%

Dew point: 50 °F

Location of OaklandLocation

Historic Weather in Oakland — Graph

°F

Oakland temperature yesterday

Maximum temperature yesterday: 62 °F (at 2:53 PM)
Minimum temperature yesterday: 53 °F (at 12:53 AM)
Average temperature yesterday: 56 °F

Past Weeks' High & Low Weather Summary

 TemperatureHumidityPressure
High65 °F (May 14, 12:53 PM)90% (May 20, 10:53 PM)30.12 "Hg (May 20, 10:53 PM)
Low52 °F (May 25, 4:53 AM)54% (May 14, 12:53 PM)29.79 "Hg (May 14, 5:53 PM)
Average57 °F76%30.00 "Hg
* Reported May 14 1:53 AM — May 29 1:53 AM, Oakland, Weather by CustomWeather, © 2015

Note: Actual official high and low records may vary slightly from our data, if they occured in-between our weather recording intervals... More about our weather records

Advertising

Oakland weather history for previous 24 hours

 ConditionsComfort  
Time TempWeatherWind HumidityBarometerVisibility
1:53 AM
Fri, May 29
53 °FLow clouds.8 mph89%30.01 "Hg10 mi
12:53 AM53 °FLow clouds.9 mph86%30.01 "Hg10 mi
11:53 PM
Thu, May 28
53 °FLow clouds.8 mph86%30.01 "Hg10 mi
10:53 PM54 °FMostly cloudy.10 mph86%30.02 "Hg10 mi
9:53 PM54 °FMostly cloudy.7 mph86%30.02 "Hg10 mi
8:53 PM55 °FMostly cloudy.14 mph83%30.01 "Hg10 mi
7:53 PM55 °FCloudy.15 mph83%30.00 "Hg10 mi
6:53 PM57 °FPartly sunny.17 mph81%29.99 "Hg10 mi
5:53 PM60 °FBroken clouds.14 mph72%29.99 "Hg10 mi
4:53 PM62 °FPartly sunny.17 mph67%30.01 "Hg10 mi
3:53 PM62 °FBroken clouds.15 mph67%30.01 "Hg10 mi
2:53 PM62 °FBroken clouds.12 mph65%30.03 "Hg10 mi
1:53 PM61 °FPartly sunny.12 mph67%30.04 "Hg10 mi
12:53 PM57 °FLow clouds.10 mph74%30.06 "Hg10 mi
11:53 AM56 °FLow clouds.9 mph81%30.06 "Hg10 mi
10:53 AM55 °FLow clouds.6 mph80%30.06 "Hg10 mi
9:53 AM53 °FLow clouds.3 mph89%30.06 "Hg10 mi
8:53 AM53 °FLow clouds.7 mph86%30.07 "Hg10 mi
7:53 AM53 °FLow clouds.9 mph86%30.05 "Hg10 mi
6:53 AM53 °FLow clouds.12 mph86%30.04 "Hg10 mi
5:53 AM53 °FDrizzle. Low clouds.6 mph86%30.03 "Hg10 mi
4:53 AM53 °FLow clouds.8 mph86%30.03 "Hg10 mi
3:53 AM53 °FLow clouds.9 mph86%30.02 "Hg10 mi
Weather by CustomWeather, © 2015

See weather overviewHow to use our weather pages